FW7504 Weather Reports


Display with metric or nautical units.
time (UTC)temp
F
wind
direction
speed
MPH
gust
MPH
rain 1hr
in
rain 24hr
in
rain mn
in
humidity
%
barometer
mb
20260903195053 96 108 2.0 10.0 0.00 0.00 0.00 51 1017.2
20260903194601 96 61 3.0 10.0 0.00 0.00 0.00 51 1017.2
20260903194056 96 59 3.0 12.0 0.00 0.00 0.00 51 1017.2
20260903193552 96 0 3.0 12.0 0.00 0.00 0.00 52 1017.2
20260903193102 96 94 5.0 12.0 0.00 0.00 0.00 52 1017.2
20260903192554 96 95 2.0 7.0 0.00 0.00 0.00 51 1017.4
20260903192055 96 96 1.0 6.0 0.00 0.00 0.00 51 1017.4
20260903191605 95 0 0.0 8.0 0.00 0.00 0.00 51 1017.6
20260903191054 95 326 3.0 8.0 0.00 0.00 0.00 51 1017.6
20260903190553 95 352 0.0 4.0 0.00 0.00 0.00 50 1017.6
20260903190103 95 67 0.0 4.0 0.00 0.00 0.00 51 1017.6
20260903185552 95 347 0.0 4.0 0.00 0.00 0.00 51 1017.8
20260903185053 95 85 1.0 6.0 0.00 0.00 0.00 52 1017.9
20260903184616 94 70 1.0 6.0 0.00 0.00 0.00 53 1017.9
20260903184054 94 82 1.0 6.0 0.00 0.00 0.00 54 1018.1
20260903183553 94 61 2.0 6.0 0.00 0.00 0.00 54 1018.1
20260903183102 94 11 0.0 6.0 0.00 0.00 0.00 54 1018.1
20260903182553 93 13 2.0 7.0 0.00 0.00 0.00 56 1018.1
20260903182052 93 61 1.0 7.0 0.00 0.00 0.00 55 1018.3
20260903181557 93 95 0.0 3.0 0.00 0.00 0.00 54 1018.4
20260903181053 93 0 0.0 3.0 0.00 0.00 0.00 54 1018.4
20260903180553 93 98 0.0 3.0 0.00 0.00 0.00 53 1018.4
20260903180111 93 0 1.0 5.0 0.00 0.00 0.00 54 1018.4
20260903175552 94 22 2.0 5.0 0.00 0.00 0.00 54 1018.5
20260903175053 94 44 2.0 5.0 0.00 0.00 0.00 52 1018.4
20260903174613 94 0 0.0 2.0 0.00 0.00 0.00 54 1018.6
20260903174057 94 103 0.0 5.0 0.00 0.00 0.00 54 1018.6
20260903173554 94 0 1.0 7.0 0.00 0.00 0.00 53 1018.7
20260903173119 94 79 2.0 8.0 0.00 0.00 0.00 54 1018.7
20260903172553 94 72 3.0 8.0 0.00 0.00 0.00 55 1018.8
20260903172053 93 136 2.0 8.0 0.00 0.00 0.00 55 1018.8
20260903171607 93 103 0.0 4.0 0.00 0.00 0.00 58 1018.9
20260903171052 93 0 1.0 5.0 0.00 0.00 0.00 59 1019.1
20260903170553 92 0 2.0 7.0 0.00 0.00 0.00 59 1019.1
20260903170113 92 86 3.0 7.0 0.00 0.00 0.00 59 1019.3
20260903165554 92 0 0.0 4.0 0.00 0.00 0.00 61 1019.2
20260903165053 91 92 0.0 4.0 0.00 0.00 0.00 61 1019.4
20260903164605 91 0 1.0 4.0 0.00 0.00 0.00 62 1019.4
20260903164053 91 0 0.0 3.0 0.00 0.00 0.00 63 1019.3
20260903163552 91 318 0.0 4.0 0.00 0.00 0.00 64 1019.5
20260903163108 91 65 0.0 4.0 0.00 0.00 0.00 63 1019.4
20260903162553 90 0 0.0 4.0 0.00 0.00 0.00 65 1019.5
20260903162055 90 0 1.0 2.0 0.00 0.00 0.00 64 1019.6
20260903161603 90 28 1.0 2.0 0.00 0.00 0.00 63 1019.5
20260903161052 90 338 0.0 6.0 0.00 0.00 0.00 64 1019.6
20260903160552 90 61 2.0 6.0 0.00 0.00 0.00 64 1019.6
20260903155553 89 0 1.0 4.0 0.00 0.00 0.00 65 1019.7
20260903155053 89 113 1.0 5.0 0.00 0.00 0.00 65 1019.7
20260903154601 89 331 2.0 5.0 0.00 0.00 0.00 65 1019.7
20260903154053 89 65 1.0 5.0 0.00 0.00 0.00 66 1019.7
20260903153555 89 42 0.0 5.0 0.00 0.00 0.00 66 1019.7
20260903153102 89 0 1.0 5.0 0.00 0.00 0.00 66 1019.6
20260903152553 89 5 2.0 5.0 0.00 0.00 0.00 66 1019.7
20260903152053 89 0 2.0 5.0 0.00 0.00 0.00 66 1019.7
20260903151602 89 51 0.0 4.0 0.00 0.00 0.00 67 1019.7
20260903151053 89 0 0.0 3.0 0.00 0.00 0.00 67 1019.8
20260903150553 89 0 0.0 3.0 0.00 0.00 0.00 67 1019.8
20260903150114 88 0 0.0 3.0 0.00 0.00 0.00 68 1019.8
20260903145552 88 53 1.0 3.0 0.00 0.00 0.00 69 1019.7
20260903145052 87 10 0.0 4.0 0.00 0.00 0.00 70 1019.7
20260903144602 87 233 1.0 4.0 0.00 0.00 0.00 69 1019.8
20260903144054 87 0 1.0 4.0 0.00 0.00 0.00 70 1019.9
20260903143553 87 20 0.0 5.0 0.00 0.00 0.00 70 1019.8
20260903143103 87 342 1.0 5.0 0.00 0.00 0.00 70 1019.8
20260903142553 87 100 1.0 4.0 0.00 0.00 0.00 70 1019.9
20260903142052 87 0 1.0 3.0 0.00 0.00 0.00 71 1019.7
20260903141601 86 0 0.0 3.0 0.00 0.00 0.00 75 1019.8
20260903141054 86 0 1.0 3.0 0.00 0.00 0.00 75 1019.8
20260903140554 85 44 0.0 3.0 0.00 0.00 0.00 75 1019.9
20260903140101 85 0 0.0 4.0 0.00 0.00 0.00 76 1019.7
20260903135552 84 9 1.0 4.0 0.00 0.00 0.00 78 1019.7
20260903135052 83 17 1.0 4.0 0.00 0.00 0.00 78 1019.8
20260903134606 83 95 2.0 3.0 0.00 0.00 0.00 79 1019.8
20260903134050 82 0 0.0 3.0 0.00 0.00 0.00 80 1019.8
20260903133556 82 0 1.0 4.0 0.00 0.00 0.00 82 1019.9
20260903133106 81 40 1.0 4.0 0.00 0.00 0.00 82 1019.8
20260903132552 80 40 1.0 4.0 0.00 0.00 0.00 83 1019.9
20260903132052 80 343 1.0 4.0 0.00 0.00 0.00 83 1019.7
20260903131606 79 0 1.0 3.0 0.00 0.00 0.00 84 1019.8
20260903131056 79 0 1.0 4.0 0.00 0.00 0.00 86 1019.8
20260903130555 78 5 1.0 4.0 0.00 0.00 0.00 87 1019.8
20260903130117 78 350 1.0 4.0 0.00 0.00 0.00 87 1019.8
20260903125553 77 43 0.0 3.0 0.00 0.00 0.00 88 1019.8
20260903125054 77 32 1.0 3.0 0.00 0.00 0.00 88 1020.0
20260903124610 76 352 0.0 3.0 0.00 0.00 0.00 89 1020.0
20260903124052 76 0 1.0 3.0 0.00 0.00 0.00 89 1019.9
20260903123555 75 352 0.0 3.0 0.00 0.00 0.00 90 1020.0
20260903123102 75 0 0.0 3.0 0.00 0.00 0.00 90 1019.9
20260903122556 75 329 1.0 3.0 0.00 0.00 0.00 90 1020.0
20260903122053 75 0 0.0 3.0 0.00 0.00 0.00 90 1020.0
20260903121602 75 0 0.0 3.0 0.00 0.00 0.00 90 1020.0
20260903121052 74 0 1.0 3.0 0.00 0.00 0.00 91 1019.9
20260903120553 74 0 0.0 0.0 0.00 0.00 0.00 90 1019.8
20260903120106 74 0 0.0 2.0 0.00 0.00 0.00 90 1019.9
20260903115554 74 0 0.0 2.0 0.00 0.00 0.00 91 1019.7
20260903115052 74 360 0.0 1.0 0.00 0.00 0.00 91 1019.7
20260903114608 74 0 0.0 0.0 0.00 0.00 0.00 90 1019.7
20260903114052 74 0 0.0 0.0 0.00 0.00 0.00 90 1019.7
20260903113552 74 0 0.0 0.0 0.00 0.00 0.00 90 1019.6
20260903113102 74 0 0.0 0.0 0.00 0.00 0.00 89 1019.5
20260903112554 74 0 0.0 0.0 0.00 0.00 0.00 89 1019.3
20260903112053 74 0 0.0 0.0 0.00 0.00 0.00 89 1019.4
20260903111626 74 0 0.0 0.0 0.00 0.00 0.00 89 1019.3
20260903111052 74 0 0.0 0.0 0.00 0.00 0.00 90 1019.2
20260903110552 74 0 0.0 0.0 0.00 0.00 0.00 89 1019.2
20260903110113 74 0 0.0 0.0 0.00 0.00 0.00 90 1019.1
20260903105553 74 0 0.0 0.0 0.00 0.00 0.00 89 1019.1
20260903105053 74 0 0.0 0.0 0.00 0.00 0.00 89 1019.0
20260903104633 74 0 0.0 0.0 0.00 0.00 0.00 89 1018.9
20260903104053 74 0 0.0 0.0 0.00 0.00 0.00 89 1019.0
20260903103555 74 0 0.0 0.0 0.00 0.00 0.00 89 1018.9
20260903103105 74 0 0.0 0.0 0.00 0.00 0.00 89 1019.0
20260903102552 74 0 0.0 0.0 0.00 0.00 0.00 89 1018.9
20260903102052 74 0 0.0 0.0 0.00 0.00 0.00 89 1018.9
20260903101606 74 0 0.0 0.0 0.00 0.00 0.00 89 1018.8
20260903101053 74 0 0.0 0.0 0.00 0.00 0.00 88 1018.8
20260903100553 75 0 0.0 0.0 0.00 0.00 0.00 88 1018.8
20260903095552 75 0 0.0 0.0 0.00 0.00 0.00 88 1018.9
20260903095052 75 0 0.0 0.0 0.00 0.00 0.00 88 1018.8
20260903094609 75 0 0.0 0.0 0.00 0.00 0.00 88 1018.8
20260903094055 75 0 0.0 0.0 0.00 0.00 0.00 88 1018.8
20260903093556 75 0 0.0 0.0 0.00 0.00 0.00 87 1018.7
20260903093105 75 0 0.0 0.0 0.00 0.00 0.00 87 1018.7
20260903092552 75 0 0.0 0.0 0.00 0.00 0.00 87 1018.9
20260903092051 75 0 0.0 0.0 0.00 0.00 0.00 87 1018.8
20260903091612 75 0 0.0 0.0 0.00 0.00 0.00 87 1018.8
20260903091055 75 0 0.0 0.0 0.00 0.00 0.00 87 1018.7
20260903090553 75 0 0.0 0.0 0.00 0.00 0.00 87 1018.7
20260903090104 75 0 0.0 0.0 0.00 0.00 0.00 87 1018.7
20260903085552 75 0 0.0 0.0 0.00 0.00 0.00 87 1018.7
20260903085052 75 0 0.0 0.0 0.00 0.00 0.00 87 1018.7
20260903084600 75 0 0.0 0.0 0.00 0.00 0.00 86 1018.7
20260903084052 76 0 0.0 0.0 0.00 0.00 0.00 86 1018.6
20260903083553 76 0 0.0 0.0 0.00 0.00 0.00 86 1018.7
20260903083100 76 0 0.0 0.0 0.00 0.00 0.00 86 1018.6
20260903082552 76 0 0.0 0.0 0.00 0.00 0.00 86 1018.7
20260903082052 76 0 0.0 0.0 0.00 0.00 0.00 86 1018.6
20260903081603 76 0 0.0 0.0 0.00 0.00 0.00 86 1018.6
20260903081055 76 0 0.0 0.0 0.00 0.00 0.00 86 1018.6
20260903080555 76 0 0.0 0.0 0.00 0.00 0.00 85 1018.7
20260903075556 76 0 0.0 0.0 0.00 0.00 0.00 86 1018.6
20260903075052 76 0 0.0 0.0 0.00 0.00 0.00 86 1018.8
20260903074604 76 0 0.0 0.0 0.00 0.00 0.00 85 1018.8
20260903074053 76 0 0.0 0.0 0.00 0.00 0.00 85 1018.6
20260903073553 76 0 0.0 0.0 0.00 0.00 0.00 85 1018.7
20260903073111 77 0 0.0 0.0 0.00 0.00 0.00 85 1018.6
20260903072556 77 0 0.0 0.0 0.00 0.00 0.00 84 1018.6
20260903072053 77 0 0.0 0.0 0.00 0.00 0.00 84 1018.6
20260903071605 77 0 0.0 0.0 0.00 0.00 0.00 84 1018.5
20260903071052 77 0 0.0 0.0 0.00 0.00 0.00 84 1018.6
20260903070554 77 0 0.0 0.0 0.00 0.00 0.00 84 1018.5
20260903070103 77 0 0.0 0.0 0.00 0.00 0.00 84 1018.4
20260903065552 77 0 0.0 0.0 0.00 0.00 0.00 84 1018.4
20260903065052 77 0 0.0 0.0 0.00 0.00 0.00 83 1018.4
20260903064601 77 0 0.0 0.0 0.00 0.00 0.00 83 1018.3
20260903064052 77 0 0.0 0.0 0.00 0.00 0.00 83 1018.3
20260903063552 78 0 0.0 0.0 0.00 0.00 0.00 83 1018.5
20260903063102 78 0 0.0 0.0 0.00 0.00 0.00 83 1018.6
20260903062553 78 0 0.0 0.0 0.00 0.00 0.00 83 1018.6
20260903062053 78 0 0.0 0.0 0.00 0.00 0.00 82 1018.7
20260903061612 78 0 0.0 0.0 0.00 0.00 0.00 82 1018.7
20260903061050 78 0 0.0 0.0 0.00 0.00 0.00 82 1018.9
20260903060553 78 0 0.0 0.0 0.00 0.00 0.00 82 1018.6
20260903060108 78 0 0.0 0.0 0.00 0.00 0.00 82 1018.9
20260903055553 78 0 0.0 0.0 0.00 0.00 0.00 82 1018.9
20260903055053 78 0 0.0 0.0 0.00 0.00 0.00 82 1019.0
20260903054601 79 0 0.0 0.0 0.00 0.00 0.00 82 1019.0
20260903054052 79 0 0.0 0.0 0.00 0.00 0.00 81 1018.8
20260903053551 79 0 0.0 0.0 0.00 0.00 0.00 81 1018.7
20260903053112 79 0 0.0 0.0 0.00 0.00 0.00 81 1018.7
20260903052550 79 0 0.0 0.0 0.00 0.00 0.00 80 1018.7
20260903052052 79 0 0.0 0.0 0.00 0.00 0.00 81 1018.8
20260903051602 79 0 0.0 0.0 0.00 0.00 0.00 81 1018.7
20260903051051 79 0 0.0 0.0 0.00 0.00 0.00 80 1018.7
20260903050552 79 0 0.0 0.0 0.00 0.00 0.00 80 1018.7
20260903050107 79 0 0.0 0.0 0.00 0.00 0.00 80 1018.7
20260903045549 79 0 0.0 0.0 0.00 0.00 0.00 80 1018.8
20260903045051 79 0 0.0 0.0 0.00 0.00 0.00 80 1018.7
20260903044608 80 0 0.0 0.0 0.00 0.00 0.00 80 1018.6
20260903044053 80 0 0.0 0.0 0.00 0.00 0.00 80 1018.7
20260903043551 80 0 0.0 0.0 0.00 0.00 0.00 79 1018.7
20260903043104 80 0 0.0 0.0 0.00 0.00 0.00 78 1018.6
20260903042552 80 0 0.0 0.0 0.00 0.00 0.00 78 1018.6
20260903042053 80 0 0.0 2.0 0.00 0.00 0.00 78 1018.7
20260903041604 80 0 0.0 2.0 0.00 0.00 0.00 78 1018.7
20260903041053 81 0 0.0 1.0 0.00 0.00 0.00 77 1018.6
20260903040552 81 0 0.0 1.0 0.00 0.00 0.00 77 1018.6
20260903040109 81 0 0.0 0.0 0.00 0.00 0.00 77 1018.6
20260903035549 81 0 0.0 0.0 0.00 0.00 0.00 77 1018.5
20260903035049 82 0 0.0 0.0 0.00 0.00 0.00 76 1018.6
20260903034601 82 0 0.0 0.0 0.00 0.00 0.00 76 1018.7
20260903034053 82 0 0.0 0.0 0.00 0.00 0.00 74 1018.8
20260903033551 82 0 0.0 0.0 0.00 0.00 0.00 74 1018.7
20260903033058 82 0 0.0 0.0 0.00 0.00 0.00 74 1018.7
20260903032552 82 0 0.0 0.0 0.00 0.00 0.00 75 1018.7
20260903032054 82 0 0.0 0.0 0.00 0.00 0.00 76 1018.6
20260903031607 83 0 0.0 0.0 0.00 0.00 0.00 76 1018.7
20260903031052 83 0 0.0 0.0 0.00 0.00 0.00 75 1018.7
20260903030552 83 0 0.0 0.0 0.00 0.00 0.00 75 1018.7
20260903030115 83 0 0.0 0.0 0.00 0.00 0.00 74 1018.7
20260903025619 83 0 0.0 0.0 0.00 0.00 0.00 73 1018.7
20260903025053 83 0 0.0 0.0 0.00 0.00 0.00 73 1018.7
20260903024559 83 0 0.0 0.0 0.00 0.00 0.00 72 1018.8
20260903024049 84 0 0.0 0.0 0.00 0.00 0.00 73 1018.7
20260903023548 84 0 0.0 0.0 0.00 0.00 0.00 72 1018.7
20260903023100 84 0 0.0 0.0 0.00 0.00 0.00 71 1018.6
20260903022555 85 0 0.0 0.0 0.00 0.00 0.00 70 1018.5
20260903022048 85 0 0.0 4.0 0.00 0.00 0.00 69 1018.5
20260903021603 85 0 0.0 4.0 0.00 0.00 0.00 68 1018.6
20260903021052 85 360 1.0 4.0 0.00 0.00 0.00 68 1018.7
20260903020552 85 360 1.0 3.0 0.00 0.00 0.00 67 1018.5
20260903020101 85 360 2.0 4.0 0.00 0.00 0.00 69 1018.7
20260903015553 85 360 1.0 4.0 0.00 0.00 0.00 68 1018.5
20260903015052 85 360 1.0 3.0 0.00 0.00 0.00 67 1018.5
20260903014611 85 360 1.0 3.0 0.00 0.00 0.00 68 1018.5
20260903014052 85 360 1.0 3.0 0.00 0.00 0.00 67 1018.5
20260903013555 85 360 1.0 3.0 0.00 0.00 0.00 67 1018.4
20260903013106 86 360 0.0 3.0 0.00 0.00 0.00 68 1018.4
20260903012552 86 0 1.0 3.0 0.00 0.00 0.00 67 1018.4
20260903012052 86 360 0.0 2.0 0.00 0.00 0.00 67 1018.3
20260903011618 86 0 0.0 2.0 0.00 0.00 0.00 67 1018.1
20260903011049 86 360 0.0 2.0 0.00 0.00 0.00 67 1018.2
20260903010554 86 360 1.0 2.0 0.00 0.00 0.00 67 1018.1
20260903010118 87 360 0.0 2.0 0.00 0.00 0.00 66 1018.1
20260903005549 87 0 1.0 2.0 0.00 0.00 0.00 66 1018.1
20260903005048 87 0 0.0 2.0 0.00 0.00 0.00 66 1018.0
20260903004600 87 0 0.0 2.0 0.00 0.00 0.00 66 1017.9
20260903004053 88 360 0.0 1.0 0.00 0.00 0.00 65 1017.9
20260903003551 88 0 0.0 0.0 0.00 0.00 0.00 65 1017.8
20260903003106 89 0 0.0 0.0 0.00 0.00 0.00 66 1017.8
20260903002552 89 0 0.0 0.0 0.00 0.00 0.00 65 1017.8
20260903002052 90 0 0.0 1.0 0.00 0.00 0.00 63 1017.9
20260903001602 90 0 0.0 1.0 0.00 0.00 0.00 64 1017.8
20260903001054 91 0 0.0 0.0 0.00 0.00 0.00 64 1017.6
20260903000552 91 0 0.0 0.0 0.00 0.00 0.00 63 1017.6
20260903000104 92 0 0.0 0.0 0.00 0.00 0.00 62 1017.7
20260902235552 92 0 0.0 0.0 0.00 0.00 0.00 61 1017.7
20260902235052 92 0 0.0 0.0 0.00 0.00 0.00 60 1017.7
20260902234601 93 0 0.0 0.0 0.00 0.00 0.00 59 1017.6
20260902234052 93 0 0.0 0.0 0.00 0.00 0.00 58 1017.8
20260902233553 93 0 0.0 0.0 0.00 0.00 0.00 57 1017.7
20260902233100 93 0 0.0 0.0 0.00 0.00 0.00 57 1017.7
20260902232552 94 0 0.0 0.0 0.00 0.00 0.00 57 1017.7
20260902232052 94 0 0.0 0.0 0.00 0.00 0.00 57 1017.8
20260902231612 94 0 0.0 0.0 0.00 0.00 0.00 57 1017.7
20260902231052 94 0 0.0 0.0 0.00 0.00 0.00 57 1017.8
20260902230548 94 0 0.0 0.0 0.00 0.00 0.00 56 1017.8
20260902230110 95 0 0.0 4.0 0.00 0.00 0.00 53 1017.9
20260902225553 95 0 0.0 4.0 0.00 0.00 0.00 52 1018.0
20260902225052 95 360 0.0 4.0 0.00 0.00 0.00 50 1017.9
20260902224608 95 0 1.0 4.0 0.00 0.00 0.00 50 1018.0
20260902224054 96 360 0.0 2.0 0.00 0.00 0.00 50 1017.9
20260902223552 96 0 0.0 3.0 0.00 0.00 0.00 50 1018.0
20260902223107 96 0 0.0 3.0 0.00 0.00 0.00 48 1017.9
20260902222553 96 0 0.0 3.0 0.00 0.00 0.00 48 1018.0
20260902222052 97 360 1.0 3.0 0.00 0.00 0.00 47 1018.0
20260902221628 97 0 0.0 3.0 0.00 0.00 0.00 48 1018.0
20260902221055 97 360 1.0 5.0 0.00 0.00 0.00 47 1018.0
20260902220552 97 0 0.0 5.0 0.00 0.00 0.00 46 1018.0
20260902220110 97 360 2.0 5.0 0.00 0.00 0.00 45 1018.1
20260902215603 97 360 1.0 4.0 0.00 0.00 0.00 47 1018.1
20260902215052 97 0 0.0 1.0 0.00 0.00 0.00 47 1018.1
20260902214700 97 0 0.0 1.0 0.00 0.00 0.00 49 1018.0
20260902214051 96 0 0.0 3.0 0.00 0.00 0.00 47 1018.0
20260902213552 96 0 0.0 6.0 0.00 0.00 0.00 48 1018.1
20260902213100 96 360 2.0 6.0 0.00 0.00 0.00 47 1018.1
20260902212552 96 360 3.0 6.0 0.00 0.00 0.00 47 1018.0
20260902212052 95 360 2.0 6.0 0.00 0.00 0.00 49 1018.1
20260902211604 95 360 0.0 2.0 0.00 0.00 0.00 51 1018.2
20260902211049 95 0 0.0 2.0 0.00 0.00 0.00 51 1018.2
20260902210550 95 360 0.0 4.0 0.00 0.00 0.00 49 1018.3
20260902210103 95 360 0.0 4.0 0.00 0.00 0.00 50 1018.3
20260902205556 95 360 1.0 4.0 0.00 0.00 0.00 50 1018.3
20260902205051 95 0 2.0 6.0 0.00 0.00 0.00 51 1018.3
20260902204608 95 360 0.0 6.0 0.00 0.00 0.00 52 1018.2
20260902204053 95 360 0.0 4.0 0.00 0.00 0.00 53 1018.4
20260902203554 95 360 1.0 4.0 0.00 0.00 0.00 53 1018.5
20260902203103 95 360 1.0 4.0 0.00 0.00 0.00 53 1018.5
20260902202554 95 360 1.0 4.0 0.00 0.00 0.00 52 1018.5
20260902202054 95 360 0.0 4.0 0.00 0.00 0.00 52 1018.5
20260902201610 95 0 0.0 4.0 0.00 0.00 0.00 52 1018.7
20260902201053 95 0 0.0 4.0 0.00 0.00 0.00 52 1018.7
20260902200553 95 360 2.0 4.0 0.00 0.00 0.00 51 1018.7
20260902200108 95 360 0.0 5.0 0.00 0.00 0.00 52 1018.8
20260902195555 95 0 1.0 5.0 0.00 0.00 0.00 52 1018.8